[[{"header":{"parameterUnit":"m.s-1","parameterCategory":1,"la1":30.2991,"la2":30.254,"lo1":-89.0895,"lo2":-89.0444,"dy":0.0017,"dx":0.0017,"nx":28,"ny":28,"refTime":"2023-10-04T21:00:00:Z","depth":0,"parameterNumber":2,"parameterNumberName":"U-component_of_WINDS"},"data":[0,0,0,0,0,0,0,0,0,0,0,0,0,0,0,0,0,0,0,0,0,0,0,0,0,0,0,0,0,0,0,0,0,0,0,0,0,0,0,0,0,0,0,0,0,0,0,0,0,0,0,0,0,0,0,0,0,0,-3.1635,-3.1636,0,-3.1709,-3.171,-3.1711,-3.165,-3.1647,-3.1645,-3.1642,-3.1718,-3.1722,-3.1726,0,0,0,0,0,0,0,0,0,0,0,0,0,-3.1442,-3.1446,-3.1635,-3.1636,-3.1637,-3.1709,-3.171,-3.1711,-3.165,-3.1647,-3.1644,-3.1641,-3.1716,-3.1721,-3.1727,0,0,0,0,0,0,0,0,0,0,0,0,0,-3.1522,-3.1447,-3.1635,-3.1615,-3.1614,-3.1709,-3.171,-3.1711,-3.1651,-3.1647,-3.1643,-3.164,-3.1714,-3.1721,-3.1727,-3.1845,0,0,-3.1747,-3.175,0,0,0,0,0,0,0,0,-3.1517,-3.1529,-3.1617,-3.1617,-3.1616,-3.1666,-3.1669,-3.1756,-3.1652,-3.1637,-3.1642,-3.1638,-3.1704,-3.1711,-3.1733,-3.1848,-3.1851,-3.1748,-3.1752,-3.1755,-3.1757,0,0,0,0,0,0,0,-3.1512,-3.1525,-3.1664,-3.1619,-3.1618,-3.1603,-3.161,-3.1685,-3.1691,-3.1638,-3.1634,-3.1643,-3.1702,-3.1727,-3.1734,-3.1853,-3.1748,-3.1754,-3.1758,-3.176,-3.2067,-3.2071,0,0,0,0,0,0,-3.1508,-3.1521,-3.1662,-3.1666,-3.1556,-3.1609,-3.1617,-3.1654,-3.169,-3.1692,-3.1647,-3.164,-3.1717,-3.1727,-3.1737,-3.1876,-3.1755,-3.1761,-3.1765,-3.2063,-3.2068,-3.2073,0,0,0,0,0,0,-3.1504,-3.1521,-3.1659,-3.1593,-3.1609,-3.1617,-3.1658,-3.1657,-3.1682,-3.1696,-3.1697,-3.167,-3.1715,-3.1728,-3.1818,-3.1878,-3.1764,-3.177,-3.2058,-3.2065,-3.207,-3.2156,0,0,0,0,0,0,-3.1499,-3.152,-3.1565,-3.1594,-3.1613,-3.174,-3.1662,-3.1662,-3.1693,-3.1686,-3.1719,-3.1721,-3.1713,-3.1809,-3.1825,-3.1885,-3.1775,-3.2053,-3.2061,-3.2068,-3.2148,-3.2164,-3.2179,0,0,0,0,0,-3.1492,-3.1586,-3.1568,-3.1585,-3.1669,-3.1743,-3.1754,-3.1743,-3.1698,-3.1743,-3.1753,-3.172,-3.1869,-3.1819,-3.1836,-3.1899,-3.2049,-3.2059,-3.2068,-3.2141,-3.2161,-3.2178,0,0,0,0,0,0,-3.1564,-3.159,-3.1569,-3.1676,-3.1708,-3.1733,-3.1789,-3.1765,-3.181,-3.1801,-3.1785,-3.1793,-3.1889,-3.1903,-3.1846,-3.2014,-3.1952,-3.1965,-3.2001,-3.2021,-3.2036,-3.203,-3.178,0,0,0,0,0,-3.1592,-3.165,-3.167,-3.1762,-3.1779,-3.1781,-3.1813,-3.1802,-3.1834,-3.1848,-3.1864,-3.1896,-3.195,-3.1986,-3.2037,-3.215,-3.2156,-3.2202,-3.2217,-3.223,-3.2241,-3.2301,-3.2322,-3.2104,-3.2104,-3.2103,0,0,-3.1651,-3.1672,-3.171,-3.1777,-3.18,-3.186,-3.1793,-3.186,-3.1904,-3.1858,-3.1944,-3.1957,-3.1993,-3.2095,-3.2141,-3.211,-3.2303,-3.2242,-3.2252,-3.2256,-3.2313,-3.2334,-3.2352,-3.211,-3.2109,-3.2108,0,0,-3.1789,-3.1811,-3.189,-3.1915,-3.1951,-3.1952,-3.1971,-3.2,-3.2007,-3.2093,-3.206,-3.2112,-3.2206,-3.2233,-3.2258,-3.2407,-3.2378,-3.2424,-3.2504,-3.2562,-3.258,-3.2595,-3.2647,-3.2666,-3.2435,-3.2435,-3.2436,0,-3.1857,-3.1947,-3.1933,-3.2003,-3.2033,-3.1993,-3.2073,-3.2098,-3.2149,-3.217,-3.2135,-3.2252,-3.2273,-3.238,-3.2417,-3.2439,-3.246,-3.2419,-3.2578,-3.2593,-3.2607,-3.2657,-3.2677,-3.2441,-3.244,-3.2439,-3.2439,0,-3.2029,-3.2092,-3.2151,-3.2201,-3.2238,-3.2312,-3.231,-3.2349,-3.2334,-3.2339,-3.2428,-3.2452,-3.2506,-3.2531,-3.2518,-3.2637,-3.2617,-3.258,-3.2517,-3.2634,-3.268,-3.2699,-3.2448,-3.2446,-3.2445,-3.2443,0,0,-3.2214,-3.2256,-3.2278,-3.23,-3.2337,-3.2385,-3.2457,-3.2511,-3.2544,-3.2581,-3.2641,-3.2721,-3.2688,-3.2717,-3.2706,-3.2758,-3.2873,-3.2715,-3.2716,-3.2743,-3.3005,-3.3032,-3.3054,-3.2855,-3.2858,-3.2861,-3.3002,0,-3.2353,-3.2478,-3.2468,-3.2587,-3.2644,-3.2608,-3.267,-3.27,-3.2707,-3.2756,-3.2763,-3.282,-3.2772,-3.279,-3.2839,-3.2849,-3.2926,-3.2839,-3.291,-3.2913,-3.2902,-3.3079,-3.3107,-3.3239,-3.302,-3.3023,-3.3026,0,-3.2532,-3.2574,-3.2699,-3.2727,-3.275,-3.2807,-3.2855,-3.2903,-3.2936,-3.2937,-3.297,-3.2951,-3.3023,-3.2959,-3.3058,-3.3,-3.3028,-3.3037,-3.3042,-3.3048,-3.2976,-3.3089,-3.3281,-3.3301,-3.3054,-3.3052,-3.305,0,-3.2654,-3.2742,-3.2828,-3.2848,-3.2883,-3.2924,-3.294,-3.2969,-3.3002,-3.3044,-3.3065,-3.3115,-3.3142,-3.3181,-3.3176,-3.313,-3.3277,-3.3213,-3.328,-3.328,-3.3312,-3.331,-3.3512,-3.3332,-3.3332,-3.3331,-3.3331,0,-3.281,-3.2887,-3.2883,-3.2935,-3.3021,-3.3008,-3.3093,-3.3105,-3.3131,-3.3186,-3.3157,-3.3209,-3.3199,-3.325,-3.3247,-3.3329,-3.3342,-3.3345,-3.3343,-3.3347,-3.3347,-3.3365,-3.3356,-3.3337,-3.3336,-3.3334,-3.3334,0,-3.296,-3.296,-3.3051,-3.3077,-3.3085,-3.3147,-3.3169,-3.3218,-3.3222,-3.3291,-3.3307,-3.3314,-3.3373,-3.3371,-3.3439,-3.3436,-3.3538,-3.3525,-3.3527,-3.3524,-3.3591,-3.3585,-3.3811,-3.384,-3.3642,-3.3644,-3.3646,0,-3.3059,-3.3118,-3.315,-3.3184,-3.3203,-3.3258,-3.3291,-3.3281,-3.3317,-3.3359,-3.3403,-3.346,-3.3504,-3.36,-3.3611,-3.3662,-3.3651,-3.3726,-3.3658,-3.3661,-3.3651,-3.3648,-3.3653,-3.374,-3.3742,-3.3744,-3.3745,0,-3.3235,-3.3232,-3.3281,-3.333,-3.337,-3.3408,-3.3443,-3.3473,-3.3467,-3.3508,-3.3568,-3.3603,-3.3671,-3.3727,-3.3777,-3.3793,-3.3769,-3.3767,-3.3785,-3.379,-3.3788,-3.3789,-3.3563,-3.3761,-3.376,-3.3759,-3.3758,-3.3757,-3.3363,-3.3413,-3.3443,-3.3498,-3.3523,-3.3556,-3.3604,-3.3614,-3.3664,-3.3719,-3.371,-3.3777,-3.3808,-3.3871,-3.3893,-3.3945,-3.3918,-3.3945,-3.3951,-3.3958,-3.3965,-3.378,-3.3954,-3.3953,-3.3953,-3.3952,-3.3952,0,-3.3537,-3.3554,-3.3605,-3.3655,-3.3698,-3.3671,-3.3708,-3.3746,-3.3805,-3.3836,-3.388,-3.3949,-3.4003,-3.4019,-3.4071,-3.411,-3.41,-3.4124,-3.4121,-3.4125,-3.3986,-3.3965,-3.4131,-3.4131,-3.4131,-3.4131,-3.4131,-3.4131,-3.3633,-3.3716,-3.3717,-3.3812,-3.3829,-3.3894,-3.3917,-3.3948,-3.3972,-3.405,-3.4095,-3.4104,-3.4129,-3.4183,-3.4232,-3.4235,-3.4255,-3.4284,-3.4283,-3.4153,-3.4135,-3.4118,-3.4097,-3.4289,-3.4289,-3.4417,-3.4418,-3.4419]},{"header":{"parameterUnit":"m.s-1","parameterCategory":1,"la1":30.2991,"la2":30.254,"lo1":-89.0895,"lo2":-89.0444,"dy":0.0017,"dx":0.0017,"nx":28,"ny":28,"refTime":"2023-10-04T21:00:00:Z","depth":0,"parameterNumber":3,"parameterNumberName":"V-component_of_WINDS"},"data":[0,0,0,0,0,0,0,0,0,0,0,0,0,0,0,0,0,0,0,0,0,0,0,0,0,0,0,0,0,0,0,0,0,0,0,0,0,0,0,0,0,0,0,0,0,0,0,0,0,0,0,0,0,0,0,0,0,0,1.5584,1.5584,0,1.561,1.561,1.5611,1.5572,1.5571,1.557,1.5568,1.5592,1.5594,1.5596,0,0,0,0,0,0,0,0,0,0,0,0,0,1.5497,1.5499,1.5584,1.5584,1.5584,1.561,1.561,1.5611,1.5573,1.5571,1.5569,1.5568,1.5592,1.5594,1.5596,0,0,0,0,0,0,0,0,0,0,0,0,0,1.553,1.55,1.5584,1.5568,1.5567,1.561,1.5611,1.5611,1.5573,1.5571,1.5569,1.5567,1.5591,1.5594,1.5597,1.5655,0,0,1.5605,1.5607,0,0,0,0,0,0,0,0,1.5529,1.5534,1.557,1.557,1.5568,1.5586,1.5589,1.5625,1.5573,1.5571,1.5568,1.5566,1.5592,1.5594,1.5604,1.5656,1.5657,1.5606,1.5607,1.5609,1.5609,0,0,0,0,0,0,0,1.5526,1.5532,1.5594,1.5571,1.557,1.5559,1.5562,1.5596,1.5592,1.5571,1.5568,1.5572,1.5591,1.5601,1.5604,1.5657,1.5605,1.5608,1.561,1.5611,1.5758,1.576,0,0,0,0,0,0,1.5526,1.5531,1.5593,1.5595,1.5543,1.5563,1.5565,1.5582,1.5592,1.5591,1.5574,1.557,1.5597,1.5601,1.5605,1.5673,1.5608,1.5611,1.5613,1.5756,1.5758,1.5761,0,0,0,0,0,0,1.5525,1.5532,1.5592,1.5562,1.5569,1.5566,1.5586,1.5584,1.5594,1.5594,1.5593,1.5585,1.5596,1.5601,1.5643,1.5673,1.5612,1.5615,1.5753,1.5756,1.5759,1.581,0,0,0,0,0,0,1.5522,1.5532,1.5554,1.5563,1.5571,1.5631,1.5587,1.5586,1.5599,1.5595,1.5604,1.5604,1.5594,1.5639,1.5645,1.5676,1.5617,1.575,1.5755,1.5758,1.5805,1.5814,1.5822,0,0,0,0,0,1.5519,1.5567,1.5556,1.5563,1.5599,1.5632,1.5637,1.5626,1.5602,1.5624,1.5624,1.5603,1.5669,1.5643,1.5651,1.5682,1.5748,1.5753,1.5758,1.5802,1.5813,1.5822,0,0,0,0,0,0,1.556,1.5568,1.5555,1.5607,1.562,1.5626,1.5653,1.5638,1.5657,1.5652,1.5637,1.5639,1.5684,1.5688,1.5659,1.5739,1.5704,1.5711,1.5735,1.5745,1.5754,1.5751,1.562,0,0,0,0,0,1.5576,1.5604,1.5608,1.5653,1.566,1.5656,1.567,1.5661,1.5673,1.5678,1.568,1.5692,1.5715,1.5731,1.5752,1.5806,1.5807,1.5832,1.584,1.5847,1.5852,1.5881,1.5892,1.5777,1.5777,1.5777,0,0,1.5607,1.5615,1.5633,1.5662,1.567,1.5698,1.566,1.5692,1.5712,1.5682,1.5722,1.5725,1.5736,1.5785,1.5806,1.5789,1.5885,1.5853,1.5859,1.586,1.5887,1.5898,1.5908,1.578,1.578,1.5779,0,0,1.5679,1.5688,1.5726,1.5736,1.575,1.5747,1.5757,1.5766,1.5766,1.5807,1.5785,1.5809,1.5849,1.5858,1.5868,1.5945,1.5926,1.5952,1.5995,1.6023,1.6032,1.604,1.6067,1.6077,1.5958,1.5958,1.5958,0,1.5716,1.5758,1.5748,1.5781,1.5794,1.577,1.5808,1.5818,1.5838,1.5847,1.5828,1.5878,1.5884,1.5934,1.5953,1.5963,1.5972,1.595,1.6032,1.604,1.6047,1.6073,1.6083,1.5961,1.5961,1.596,1.596,0,1.5803,1.5832,1.5862,1.5883,1.5899,1.5935,1.5929,1.5947,1.5937,1.5936,1.5977,1.5984,1.6007,1.6018,1.6008,1.6067,1.6056,1.6035,1.6,1.6061,1.6085,1.6094,1.5965,1.5964,1.5963,1.5963,0,0,1.5899,1.5916,1.5926,1.5936,1.595,1.5972,1.6007,1.603,1.6045,1.606,1.6088,1.6123,1.6104,1.6116,1.6107,1.6131,1.6191,1.6107,1.6107,1.6122,1.6256,1.6271,1.6282,1.6179,1.6181,1.6183,1.6255,0,1.597,1.6031,1.6023,1.6081,1.6108,1.6086,1.6116,1.6127,1.6128,1.615,1.615,1.6175,1.6148,1.6155,1.6179,1.6179,1.6217,1.6174,1.6204,1.6205,1.6201,1.6295,1.631,1.6378,1.6264,1.6265,1.6266,0,1.6061,1.608,1.6141,1.6152,1.6163,1.619,1.6211,1.6233,1.6245,1.6243,1.6257,1.6244,1.6278,1.6243,1.6289,1.6259,1.6272,1.6274,1.6276,1.6278,1.6239,1.6298,1.6399,1.6409,1.6281,1.628,1.6279,0,1.6125,1.6166,1.6208,1.6217,1.623,1.625,1.6256,1.6267,1.6281,1.6299,1.6308,1.633,1.6341,1.6357,1.635,1.6326,1.6397,1.6362,1.6396,1.6396,1.6411,1.641,1.6515,1.6421,1.6421,1.642,1.642,0,1.6204,1.6242,1.6237,1.6262,1.6304,1.6295,1.6336,1.6339,1.6349,1.6374,1.6357,1.638,1.637,1.6393,1.6387,1.6426,1.6431,1.643,1.6428,1.6431,1.6432,1.6438,1.6433,1.6423,1.6422,1.6422,1.6422,0,1.6282,1.628,1.6324,1.6334,1.6337,1.6367,1.6375,1.6399,1.6398,1.643,1.6437,1.6436,1.6462,1.6457,1.6486,1.6482,1.653,1.6523,1.6526,1.6524,1.6558,1.6555,1.667,1.6685,1.6582,1.6583,1.6584,0,1.6332,1.6361,1.6374,1.6391,1.6399,1.6425,1.644,1.6432,1.6448,1.6465,1.6487,1.6512,1.6531,1.6574,1.6575,1.6597,1.6589,1.6628,1.6592,1.6595,1.6589,1.6587,1.659,1.6635,1.6636,1.6637,1.6638,0,1.6422,1.642,1.6442,1.6466,1.6484,1.6502,1.6517,1.6531,1.6525,1.6544,1.6571,1.6586,1.6616,1.6641,1.6662,1.6667,1.6651,1.665,1.6659,1.6662,1.6662,1.6662,1.6545,1.6647,1.6646,1.6645,1.6645,1.6644,1.6486,1.6511,1.6525,1.6551,1.6562,1.6577,1.66,1.6603,1.6626,1.665,1.6644,1.6675,1.6687,1.6713,1.6721,1.6745,1.673,1.6743,1.6746,1.6749,1.6753,1.666,1.6748,1.6748,1.6748,1.6748,1.6748,0,1.6574,1.6582,1.6607,1.663,1.665,1.6636,1.6652,1.667,1.6698,1.6711,1.6731,1.6762,1.6786,1.679,1.6813,1.6831,1.6824,1.6837,1.6835,1.6837,1.6765,1.6755,1.6842,1.6842,1.6842,1.6842,1.6842,1.6842,1.6622,1.6663,1.6663,1.6709,1.6716,1.6747,1.6758,1.6772,1.6782,1.6819,1.6839,1.6842,1.6851,1.6874,1.6896,1.6896,1.6905,1.692,1.6918,1.6851,1.6842,1.6832,1.6823,1.6923,1.6923,1.6987,1.6988,1.6988]}]]